SL-14 DEB

Satellite information

Favourite Embed

Satellite Type and Status

DEBRISIN ORBIT

Key statistics

Satellite SL-14 DEB at a glance.

Uptime

12380

Days in orbit

Revolutions

≈ 13.7

Per day

Orbit

LEO

Low Earth Orbit

Inclination

82.5

Latest

Satellite identification and parameters

Extended collection of information and parameters for SL-14 DEB.

Object identification

Identified? True

Debris? True

Object name: SL-14 DEB

International designator: 1991-056CD

Object number (NORAD): 45339

Object ID (CCSDS): 45339

Country: COMMONWEALTH OF INDEPENDENT STATES (CIS)

Current information (Y/N): Y

RCS size: SMALL

Orbital parameters

Period: 105.06 minutes

Inclination: 82.4994 deg

SMA: 7375.394 km

Apoapsis: 1074.312 km

Periapsis: 920.206 km

RAAN: 288.5882 deg

Eccentricy: 0.0104473

Argument of periapsis: 243.8844 deg

Mean anomaly: 115.153 deg

Mean motion: 13.70644891 rev/day

Mean motion (dot): 0.00007528 rev/day2

B* drag term: 0.0081455 1/REarth

Two-line elements (TLE)

Creation date: July 6, 2025, 4:10 a.m.

Reference frame: TEME

Reference center: EARTH

Epoch: July 5, 2025, 3:59 p.m. UTC

TLE line 0: 0 SL-14 DEB

TLE line 1: 1 45339U 91056CD 25186.66603839 .00007528 00000-0 81455-2 0 9995

TLE line 2: 2 45339 82.4994 288.5882 0104473 243.8844 115.1530 13.70644891263511

Live tracking on map

Real-time ground track for satellite SL-14 DEB.

In-orbit conjunctions

A list of the most updated potential collisions computed for object SL-14 DEB.

Target Orbit TCA Probability of collision Miss distance Type
MAGION 2 HEO 2024-12-13 04:17:22 0.0002151276 490.0 (m) PAYLOAD
METEOR 2-20 LEO 2024-08-09 11:47:57 0.00203016 117.0 (m) PAYLOAD

Associated space launch

Third generation meteorological satellite

SL-14 DEB was lifted into orbit during the mission ‘Tsiklon-3 | Meteor-3 5’, on board a Tsiklon-3 space rocket.

The launch took place on Aug. 15, 1991, 9:15 a.m. from 32/2.

For more information about the launch, click the button.

Launch to space Tsiklon-3 | Meteor-3 5
Tsiklon-3 | Meteor-3 5

Agency: N/A

Status: Launch Successful

Launch date: Aug. 15, 1991, 9:15 a.m. UTC

Rocket: Tsiklon-3

Launch pad: 32/2

Location: Plesetsk Cosmodrome, Russian Federation

...

Latest news about this satellite

There are no fresh news available about this satellite. Check back as we update our databases every day.


Newsletter sign-up

Weekly statistics, charts and insights to help you stay on top of the space industry.